<?xml version="1.0" encoding="UTF-8" standalone="no" ?>
<gpx xmlns="http://www.topografix.com/GPX/1/1" xmlns:xsi="http://www.w3.org/2001/XMLSchema-instance" xsi:schemaLocation="http://www.topografix.com/GPX/1/1 http://www.topografix.com/GPX/1/1/gpx.xsd" version="1.1" creator="VisuGPX - https://www.visugpx.com">
  <metadata>
    <name>Pitelet la plantade</name>
    <desc><![CDATA[boucle au depart de Pitelet,entre palladuc et la guillermie
]]></desc>
  </metadata>
  <trk>
    <name><![CDATA[track]]></name>
    <trkseg>
      <trkpt lat="45.93912" lon="3.6315">
        <ele>784</ele>
        <time>2010-09-19T14:14:48Z</time>
      </trkpt>
      <trkpt lat="45.93972" lon="3.63287">
        <ele>789</ele>
        <time>2010-09-19T14:14:48Z</time>
      </trkpt>
      <trkpt lat="45.93998" lon="3.63327">
        <ele>794</ele>
        <time>2010-09-19T14:14:48Z</time>
      </trkpt>
      <trkpt lat="45.94015" lon="3.63328">
        <ele>794</ele>
        <time>2010-09-19T14:14:48Z</time>
      </trkpt>
      <trkpt lat="45.94143" lon="3.6325">
        <ele>796</ele>
        <time>2010-09-19T14:14:48Z</time>
      </trkpt>
      <trkpt lat="45.94219" lon="3.63239">
        <ele>800</ele>
        <time>2010-09-19T14:14:48Z</time>
      </trkpt>
      <trkpt lat="45.94274" lon="3.63284">
        <ele>812</ele>
        <time>2010-09-19T14:14:48Z</time>
      </trkpt>
      <trkpt lat="45.94325" lon="3.63316">
        <ele>814</ele>
        <time>2010-09-19T14:14:48Z</time>
      </trkpt>
      <trkpt lat="45.94354" lon="3.63365">
        <ele>809</ele>
        <time>2010-09-19T14:14:48Z</time>
      </trkpt>
      <trkpt lat="45.9431" lon="3.63456">
        <ele>824</ele>
        <time>2010-09-19T14:14:48Z</time>
      </trkpt>
      <trkpt lat="45.94319" lon="3.63535">
        <ele>818</ele>
        <time>2010-09-19T14:14:48Z</time>
      </trkpt>
      <trkpt lat="45.94326" lon="3.63658">
        <ele>825</ele>
        <time>2010-09-19T14:14:48Z</time>
      </trkpt>
      <trkpt lat="45.94331" lon="3.63685">
        <ele>829</ele>
        <time>2010-09-19T14:14:48Z</time>
      </trkpt>
      <trkpt lat="45.94403" lon="3.63826">
        <ele>830</ele>
        <time>2010-09-19T14:14:48Z</time>
      </trkpt>
      <trkpt lat="45.94402" lon="3.63861">
        <ele>830</ele>
        <time>2010-09-19T14:14:48Z</time>
      </trkpt>
      <trkpt lat="45.94377" lon="3.63912">
        <ele>830</ele>
        <time>2010-09-19T14:14:48Z</time>
      </trkpt>
      <trkpt lat="45.94356" lon="3.63929">
        <ele>834</ele>
        <time>2010-09-19T14:14:48Z</time>
      </trkpt>
      <trkpt lat="45.94309" lon="3.63959">
        <ele>842</ele>
        <time>2010-09-19T14:14:48Z</time>
      </trkpt>
      <trkpt lat="45.94303" lon="3.64036">
        <ele>842</ele>
        <time>2010-09-19T14:14:48Z</time>
      </trkpt>
      <trkpt lat="45.94304" lon="3.64067">
        <ele>841</ele>
        <time>2010-09-19T14:14:48Z</time>
      </trkpt>
      <trkpt lat="45.94217" lon="3.64205">
        <ele>839</ele>
        <time>2010-09-19T14:14:48Z</time>
      </trkpt>
      <trkpt lat="45.94113" lon="3.64199">
        <ele>856</ele>
        <time>2010-09-19T14:14:48Z</time>
      </trkpt>
      <trkpt lat="45.94087" lon="3.64385">
        <ele>849</ele>
        <time>2010-09-19T14:14:48Z</time>
      </trkpt>
      <trkpt lat="45.94009" lon="3.64534">
        <ele>841</ele>
        <time>2010-09-19T14:14:48Z</time>
      </trkpt>
      <trkpt lat="45.93884" lon="3.64634">
        <ele>871</ele>
        <time>2010-09-19T14:14:48Z</time>
      </trkpt>
      <trkpt lat="45.93842" lon="3.64663">
        <ele>888</ele>
        <time>2010-09-19T14:14:48Z</time>
      </trkpt>
      <trkpt lat="45.93745" lon="3.64647">
        <ele>905</ele>
        <time>2010-09-19T14:14:48Z</time>
      </trkpt>
      <trkpt lat="45.93738" lon="3.64671">
        <ele>904</ele>
        <time>2010-09-19T14:14:48Z</time>
      </trkpt>
      <trkpt lat="45.93778" lon="3.64817">
        <ele>906</ele>
        <time>2010-09-19T14:14:48Z</time>
      </trkpt>
      <trkpt lat="45.93765" lon="3.64919">
        <ele>907</ele>
        <time>2010-09-19T14:14:48Z</time>
      </trkpt>
      <trkpt lat="45.93753" lon="3.64974">
        <ele>908</ele>
        <time>2010-09-19T14:14:48Z</time>
      </trkpt>
      <trkpt lat="45.93739" lon="3.65014">
        <ele>910</ele>
        <time>2010-09-19T14:14:48Z</time>
      </trkpt>
      <trkpt lat="45.93746" lon="3.65045">
        <ele>910</ele>
        <time>2010-09-19T14:14:48Z</time>
      </trkpt>
      <trkpt lat="45.93763" lon="3.65076">
        <ele>910</ele>
        <time>2010-09-19T14:14:48Z</time>
      </trkpt>
      <trkpt lat="45.93793" lon="3.65115">
        <ele>911</ele>
        <time>2010-09-19T14:14:48Z</time>
      </trkpt>
      <trkpt lat="45.93858" lon="3.65139">
        <ele>912</ele>
        <time>2010-09-19T14:14:48Z</time>
      </trkpt>
      <trkpt lat="45.93906" lon="3.65161">
        <ele>914</ele>
        <time>2010-09-19T14:14:48Z</time>
      </trkpt>
      <trkpt lat="45.9392" lon="3.65173">
        <ele>915</ele>
        <time>2010-09-19T14:14:48Z</time>
      </trkpt>
      <trkpt lat="45.94031" lon="3.65164">
        <ele>920</ele>
        <time>2010-09-19T14:14:48Z</time>
      </trkpt>
      <trkpt lat="45.94097" lon="3.6515">
        <ele>920</ele>
        <time>2010-09-19T14:14:48Z</time>
      </trkpt>
      <trkpt lat="45.94133" lon="3.65127">
        <ele>917</ele>
        <time>2010-09-19T14:14:48Z</time>
      </trkpt>
      <trkpt lat="45.9415" lon="3.65106">
        <ele>915</ele>
        <time>2010-09-19T14:14:48Z</time>
      </trkpt>
      <trkpt lat="45.94171" lon="3.65068">
        <ele>910</ele>
        <time>2010-09-19T14:14:48Z</time>
      </trkpt>
      <trkpt lat="45.94211" lon="3.65059">
        <ele>908</ele>
        <time>2010-09-19T14:14:48Z</time>
      </trkpt>
      <trkpt lat="45.94241" lon="3.65071">
        <ele>908</ele>
        <time>2010-09-19T14:14:48Z</time>
      </trkpt>
      <trkpt lat="45.9428" lon="3.6508">
        <ele>907</ele>
        <time>2010-09-19T14:14:48Z</time>
      </trkpt>
      <trkpt lat="45.9433" lon="3.65065">
        <ele>903</ele>
        <time>2010-09-19T14:14:48Z</time>
      </trkpt>
      <trkpt lat="45.94433" lon="3.64995">
        <ele>899</ele>
        <time>2010-09-19T14:14:48Z</time>
      </trkpt>
      <trkpt lat="45.94495" lon="3.64976">
        <ele>893</ele>
        <time>2010-09-19T14:14:48Z</time>
      </trkpt>
      <trkpt lat="45.94518" lon="3.64975">
        <ele>891</ele>
        <time>2010-09-19T14:14:48Z</time>
      </trkpt>
      <trkpt lat="45.94574" lon="3.64995">
        <ele>883</ele>
        <time>2010-09-19T14:14:48Z</time>
      </trkpt>
      <trkpt lat="45.94601" lon="3.65028">
        <ele>884</ele>
        <time>2010-09-19T14:14:48Z</time>
      </trkpt>
      <trkpt lat="45.94688" lon="3.65108">
        <ele>870</ele>
        <time>2010-09-19T14:14:48Z</time>
      </trkpt>
      <trkpt lat="45.94706" lon="3.65111">
        <ele>867</ele>
        <time>2010-09-19T14:14:48Z</time>
      </trkpt>
      <trkpt lat="45.9471" lon="3.65084">
        <ele>866</ele>
        <time>2010-09-19T14:14:48Z</time>
      </trkpt>
      <trkpt lat="45.9471" lon="3.65029">
        <ele>864</ele>
        <time>2010-09-19T14:14:48Z</time>
      </trkpt>
      <trkpt lat="45.94701" lon="3.64892">
        <ele>868</ele>
        <time>2010-09-19T14:14:48Z</time>
      </trkpt>
      <trkpt lat="45.9468" lon="3.64819">
        <ele>869</ele>
        <time>2010-09-19T14:14:48Z</time>
      </trkpt>
      <trkpt lat="45.9468" lon="3.6477">
        <ele>875</ele>
        <time>2010-09-19T14:14:48Z</time>
      </trkpt>
      <trkpt lat="45.94672" lon="3.64694">
        <ele>877</ele>
        <time>2010-09-19T14:14:48Z</time>
      </trkpt>
      <trkpt lat="45.94646" lon="3.64623">
        <ele>871</ele>
        <time>2010-09-19T14:14:48Z</time>
      </trkpt>
      <trkpt lat="45.94641" lon="3.64578">
        <ele>870</ele>
        <time>2010-09-19T14:14:48Z</time>
      </trkpt>
      <trkpt lat="45.94647" lon="3.64512">
        <ele>870</ele>
        <time>2010-09-19T14:14:48Z</time>
      </trkpt>
      <trkpt lat="45.94659" lon="3.64472">
        <ele>869</ele>
        <time>2010-09-19T14:14:48Z</time>
      </trkpt>
      <trkpt lat="45.94687" lon="3.64427">
        <ele>866</ele>
        <time>2010-09-19T14:14:48Z</time>
      </trkpt>
      <trkpt lat="45.94723" lon="3.64391">
        <ele>863</ele>
        <time>2010-09-19T14:14:48Z</time>
      </trkpt>
      <trkpt lat="45.94754" lon="3.64369">
        <ele>859</ele>
        <time>2010-09-19T14:14:48Z</time>
      </trkpt>
      <trkpt lat="45.9491" lon="3.64571">
        <ele>874</ele>
        <time>2010-09-19T14:14:48Z</time>
      </trkpt>
      <trkpt lat="45.9496" lon="3.64624">
        <ele>879</ele>
        <time>2010-09-19T14:14:48Z</time>
      </trkpt>
      <trkpt lat="45.95016" lon="3.64653">
        <ele>881</ele>
        <time>2010-09-19T14:14:48Z</time>
      </trkpt>
      <trkpt lat="45.95093" lon="3.64658">
        <ele>880</ele>
        <time>2010-09-19T14:14:48Z</time>
      </trkpt>
      <trkpt lat="45.95142" lon="3.64672">
        <ele>883</ele>
        <time>2010-09-19T14:14:48Z</time>
      </trkpt>
      <trkpt lat="45.95181" lon="3.64665">
        <ele>882</ele>
        <time>2010-09-19T14:14:48Z</time>
      </trkpt>
      <trkpt lat="45.95216" lon="3.64651">
        <ele>881</ele>
        <time>2010-09-19T14:14:48Z</time>
      </trkpt>
      <trkpt lat="45.95238" lon="3.64676">
        <ele>886</ele>
        <time>2010-09-19T14:14:48Z</time>
      </trkpt>
      <trkpt lat="45.95268" lon="3.64673">
        <ele>886</ele>
        <time>2010-09-19T14:14:48Z</time>
      </trkpt>
      <trkpt lat="45.95302" lon="3.64663">
        <ele>885</ele>
        <time>2010-09-19T14:14:48Z</time>
      </trkpt>
      <trkpt lat="45.9537" lon="3.64664">
        <ele>886</ele>
        <time>2010-09-19T14:14:48Z</time>
      </trkpt>
      <trkpt lat="45.95402" lon="3.64656">
        <ele>884</ele>
        <time>2010-09-19T14:14:48Z</time>
      </trkpt>
      <trkpt lat="45.95434" lon="3.64637">
        <ele>881</ele>
        <time>2010-09-19T14:14:48Z</time>
      </trkpt>
      <trkpt lat="45.95466" lon="3.64638">
        <ele>882</ele>
        <time>2010-09-19T14:14:48Z</time>
      </trkpt>
      <trkpt lat="45.95491" lon="3.6465">
        <ele>884</ele>
        <time>2010-09-19T14:14:48Z</time>
      </trkpt>
      <trkpt lat="45.95548" lon="3.64659">
        <ele>887</ele>
        <time>2010-09-19T14:14:48Z</time>
      </trkpt>
      <trkpt lat="45.95601" lon="3.64657">
        <ele>888</ele>
        <time>2010-09-19T14:14:48Z</time>
      </trkpt>
      <trkpt lat="45.95681" lon="3.64638">
        <ele>884</ele>
        <time>2010-09-19T14:14:48Z</time>
      </trkpt>
      <trkpt lat="45.95715" lon="3.64626">
        <ele>882</ele>
        <time>2010-09-19T14:14:48Z</time>
      </trkpt>
      <trkpt lat="45.95758" lon="3.64601">
        <ele>878</ele>
        <time>2010-09-19T14:14:48Z</time>
      </trkpt>
      <trkpt lat="45.95782" lon="3.64592">
        <ele>877</ele>
        <time>2010-09-19T14:14:48Z</time>
      </trkpt>
      <trkpt lat="45.958" lon="3.6456">
        <ele>877</ele>
        <time>2010-09-19T14:14:48Z</time>
      </trkpt>
      <trkpt lat="45.95812" lon="3.6453">
        <ele>877</ele>
        <time>2010-09-19T14:14:48Z</time>
      </trkpt>
      <trkpt lat="45.95827" lon="3.64456">
        <ele>881</ele>
        <time>2010-09-19T14:14:48Z</time>
      </trkpt>
      <trkpt lat="45.95832" lon="3.64313">
        <ele>892</ele>
        <time>2010-09-19T14:14:48Z</time>
      </trkpt>
      <trkpt lat="45.95846" lon="3.64263">
        <ele>896</ele>
        <time>2010-09-19T14:14:48Z</time>
      </trkpt>
      <trkpt lat="45.95864" lon="3.6422">
        <ele>898</ele>
        <time>2010-09-19T14:14:48Z</time>
      </trkpt>
      <trkpt lat="45.95884" lon="3.6419">
        <ele>899</ele>
        <time>2010-09-19T14:14:48Z</time>
      </trkpt>
      <trkpt lat="45.9598" lon="3.64076">
        <ele>898</ele>
        <time>2010-09-19T14:14:48Z</time>
      </trkpt>
      <trkpt lat="45.96077" lon="3.64018">
        <ele>895</ele>
        <time>2010-09-19T14:14:48Z</time>
      </trkpt>
      <trkpt lat="45.96091" lon="3.64008">
        <ele>895</ele>
        <time>2010-09-19T14:14:48Z</time>
      </trkpt>
      <trkpt lat="45.96164" lon="3.63929">
        <ele>892</ele>
        <time>2010-09-19T14:14:48Z</time>
      </trkpt>
      <trkpt lat="45.96187" lon="3.63913">
        <ele>892</ele>
        <time>2010-09-19T14:14:48Z</time>
      </trkpt>
      <trkpt lat="45.96298" lon="3.63874">
        <ele>899</ele>
        <time>2010-09-19T14:14:48Z</time>
      </trkpt>
      <trkpt lat="45.96339" lon="3.63841">
        <ele>899</ele>
        <time>2010-09-19T14:14:48Z</time>
      </trkpt>
      <trkpt lat="45.9642" lon="3.63744">
        <ele>904</ele>
        <time>2010-09-19T14:14:48Z</time>
      </trkpt>
      <trkpt lat="45.96468" lon="3.63808">
        <ele>912</ele>
        <time>2010-09-19T14:14:48Z</time>
      </trkpt>
      <trkpt lat="45.96558" lon="3.63917">
        <ele>925</ele>
        <time>2010-09-19T14:14:48Z</time>
      </trkpt>
      <trkpt lat="45.96605" lon="3.63976">
        <ele>930</ele>
        <time>2010-09-19T14:14:48Z</time>
      </trkpt>
      <trkpt lat="45.96605" lon="3.64016">
        <ele>932</ele>
        <time>2010-09-19T14:14:48Z</time>
      </trkpt>
      <trkpt lat="45.96619" lon="3.64065">
        <ele>936</ele>
        <time>2010-09-19T14:14:48Z</time>
      </trkpt>
      <trkpt lat="45.96633" lon="3.64098">
        <ele>940</ele>
        <time>2010-09-19T14:14:48Z</time>
      </trkpt>
      <trkpt lat="45.96703" lon="3.64196">
        <ele>943</ele>
        <time>2010-09-19T14:14:48Z</time>
      </trkpt>
      <trkpt lat="45.96733" lon="3.64289">
        <ele>933</ele>
        <time>2010-09-19T14:14:48Z</time>
      </trkpt>
      <trkpt lat="45.96735" lon="3.64326">
        <ele>928</ele>
        <time>2010-09-19T14:14:48Z</time>
      </trkpt>
      <trkpt lat="45.96728" lon="3.64395">
        <ele>923</ele>
        <time>2010-09-19T14:14:48Z</time>
      </trkpt>
      <trkpt lat="45.9669" lon="3.64469">
        <ele>924</ele>
        <time>2010-09-19T14:14:48Z</time>
      </trkpt>
      <trkpt lat="45.96655" lon="3.64574">
        <ele>923</ele>
        <time>2010-09-19T14:14:48Z</time>
      </trkpt>
      <trkpt lat="45.96636" lon="3.64656">
        <ele>921</ele>
        <time>2010-09-19T14:14:48Z</time>
      </trkpt>
      <trkpt lat="45.96625" lon="3.64717">
        <ele>921</ele>
        <time>2010-09-19T14:14:48Z</time>
      </trkpt>
      <trkpt lat="45.96554" lon="3.64993">
        <ele>932</ele>
        <time>2010-09-19T14:14:48Z</time>
      </trkpt>
      <trkpt lat="45.9656" lon="3.65098">
        <ele>928</ele>
        <time>2010-09-19T14:14:48Z</time>
      </trkpt>
      <trkpt lat="45.96562" lon="3.65204">
        <ele>927</ele>
        <time>2010-09-19T14:14:48Z</time>
      </trkpt>
      <trkpt lat="45.96562" lon="3.65269">
        <ele>926</ele>
        <time>2010-09-19T14:14:48Z</time>
      </trkpt>
      <trkpt lat="45.96558" lon="3.65325">
        <ele>927</ele>
        <time>2010-09-19T14:14:48Z</time>
      </trkpt>
      <trkpt lat="45.96562" lon="3.65374">
        <ele>926</ele>
        <time>2010-09-19T14:14:48Z</time>
      </trkpt>
      <trkpt lat="45.96573" lon="3.65442">
        <ele>924</ele>
        <time>2010-09-19T14:14:48Z</time>
      </trkpt>
      <trkpt lat="45.96572" lon="3.65503">
        <ele>928</ele>
        <time>2010-09-19T14:14:48Z</time>
      </trkpt>
      <trkpt lat="45.96528" lon="3.65534">
        <ele>934</ele>
        <time>2010-09-19T14:14:48Z</time>
      </trkpt>
      <trkpt lat="45.96435" lon="3.65579">
        <ele>950</ele>
        <time>2010-09-19T14:14:48Z</time>
      </trkpt>
      <trkpt lat="45.96401" lon="3.65581">
        <ele>957</ele>
        <time>2010-09-19T14:14:48Z</time>
      </trkpt>
      <trkpt lat="45.96387" lon="3.65566">
        <ele>961</ele>
        <time>2010-09-19T14:14:48Z</time>
      </trkpt>
      <trkpt lat="45.9638" lon="3.65551">
        <ele>964</ele>
        <time>2010-09-19T14:14:48Z</time>
      </trkpt>
      <trkpt lat="45.96385" lon="3.6551">
        <ele>967</ele>
        <time>2010-09-19T14:14:48Z</time>
      </trkpt>
      <trkpt lat="45.96399" lon="3.65465">
        <ele>969</ele>
        <time>2010-09-19T14:14:48Z</time>
      </trkpt>
      <trkpt lat="45.964" lon="3.65436">
        <ele>971</ele>
        <time>2010-09-19T14:14:48Z</time>
      </trkpt>
      <trkpt lat="45.96386" lon="3.65408">
        <ele>976</ele>
        <time>2010-09-19T14:14:48Z</time>
      </trkpt>
      <trkpt lat="45.96339" lon="3.65383">
        <ele>984</ele>
        <time>2010-09-19T14:14:48Z</time>
      </trkpt>
      <trkpt lat="45.96278" lon="3.65381">
        <ele>985</ele>
        <time>2010-09-19T14:14:48Z</time>
      </trkpt>
      <trkpt lat="45.96202" lon="3.65436">
        <ele>986</ele>
        <time>2010-09-19T14:14:48Z</time>
      </trkpt>
      <trkpt lat="45.96098" lon="3.65519">
        <ele>994</ele>
        <time>2010-09-19T14:14:48Z</time>
      </trkpt>
      <trkpt lat="45.96025" lon="3.65557">
        <ele>1003</ele>
        <time>2010-09-19T14:14:48Z</time>
      </trkpt>
      <trkpt lat="45.95972" lon="3.65579">
        <ele>1008</ele>
        <time>2010-09-19T14:14:48Z</time>
      </trkpt>
      <trkpt lat="45.95925" lon="3.65589">
        <ele>1011</ele>
        <time>2010-09-19T14:14:48Z</time>
      </trkpt>
      <trkpt lat="45.9587" lon="3.65586">
        <ele>1013</ele>
        <time>2010-09-19T14:14:48Z</time>
      </trkpt>
      <trkpt lat="45.95796" lon="3.65621">
        <ele>1018</ele>
        <time>2010-09-19T14:14:48Z</time>
      </trkpt>
      <trkpt lat="45.95747" lon="3.65651">
        <ele>1024</ele>
        <time>2010-09-19T14:14:48Z</time>
      </trkpt>
      <trkpt lat="45.95691" lon="3.65696">
        <ele>1030</ele>
        <time>2010-09-19T14:14:48Z</time>
      </trkpt>
      <trkpt lat="45.95623" lon="3.65801">
        <ele>1034</ele>
        <time>2010-09-19T14:14:48Z</time>
      </trkpt>
      <trkpt lat="45.95599" lon="3.65883">
        <ele>1034</ele>
        <time>2010-09-19T14:14:48Z</time>
      </trkpt>
      <trkpt lat="45.95592" lon="3.6594">
        <ele>1034</ele>
        <time>2010-09-19T14:14:48Z</time>
      </trkpt>
      <trkpt lat="45.95624" lon="3.66172">
        <ele>1043</ele>
        <time>2010-09-19T14:14:48Z</time>
      </trkpt>
      <trkpt lat="45.95622" lon="3.66215">
        <ele>1043</ele>
        <time>2010-09-19T14:14:48Z</time>
      </trkpt>
      <trkpt lat="45.95638" lon="3.66242">
        <ele>1044</ele>
        <time>2010-09-19T14:14:48Z</time>
      </trkpt>
      <trkpt lat="45.95676" lon="3.66283">
        <ele>1047</ele>
        <time>2010-09-19T14:14:48Z</time>
      </trkpt>
      <trkpt lat="45.9571" lon="3.66305">
        <ele>1049</ele>
        <time>2010-09-19T14:14:48Z</time>
      </trkpt>
      <trkpt lat="45.95728" lon="3.6634">
        <ele>1050</ele>
        <time>2010-09-19T14:14:48Z</time>
      </trkpt>
      <trkpt lat="45.95731" lon="3.66394">
        <ele>1051</ele>
        <time>2010-09-19T14:14:48Z</time>
      </trkpt>
      <trkpt lat="45.95728" lon="3.66429">
        <ele>1051</ele>
        <time>2010-09-19T14:14:48Z</time>
      </trkpt>
      <trkpt lat="45.95712" lon="3.66509">
        <ele>1052</ele>
        <time>2010-09-19T14:14:48Z</time>
      </trkpt>
      <trkpt lat="45.95706" lon="3.66575">
        <ele>1055</ele>
        <time>2010-09-19T14:14:48Z</time>
      </trkpt>
      <trkpt lat="45.95771" lon="3.66583">
        <ele>1059</ele>
        <time>2010-09-19T14:14:48Z</time>
      </trkpt>
      <trkpt lat="45.95844" lon="3.66567">
        <ele>1063</ele>
        <time>2010-09-19T14:14:48Z</time>
      </trkpt>
      <trkpt lat="45.95858" lon="3.66568">
        <ele>1064</ele>
        <time>2010-09-19T14:14:48Z</time>
      </trkpt>
      <trkpt lat="45.95919" lon="3.66577">
        <ele>1069</ele>
        <time>2010-09-19T14:14:48Z</time>
      </trkpt>
      <trkpt lat="45.95963" lon="3.66593">
        <ele>1072</ele>
        <time>2010-09-19T14:14:48Z</time>
      </trkpt>
      <trkpt lat="45.96163" lon="3.66688">
        <ele>1082</ele>
        <time>2010-09-19T14:14:48Z</time>
      </trkpt>
      <trkpt lat="45.96195" lon="3.66707">
        <ele>1080</ele>
        <time>2010-09-19T14:14:48Z</time>
      </trkpt>
      <trkpt lat="45.96157" lon="3.66717">
        <ele>1086</ele>
        <time>2010-09-19T14:14:48Z</time>
      </trkpt>
      <trkpt lat="45.96115" lon="3.66761">
        <ele>1094</ele>
        <time>2010-09-19T14:14:48Z</time>
      </trkpt>
      <trkpt lat="45.96084" lon="3.66833">
        <ele>1101</ele>
        <time>2010-09-19T14:14:48Z</time>
      </trkpt>
      <trkpt lat="45.96041" lon="3.66914">
        <ele>1105</ele>
        <time>2010-09-19T14:14:48Z</time>
      </trkpt>
      <trkpt lat="45.96002" lon="3.66979">
        <ele>1108</ele>
        <time>2010-09-19T14:14:48Z</time>
      </trkpt>
      <trkpt lat="45.95918" lon="3.67103">
        <ele>1113</ele>
        <time>2010-09-19T14:14:48Z</time>
      </trkpt>
      <trkpt lat="45.95893" lon="3.67154">
        <ele>1116</ele>
        <time>2010-09-19T14:14:48Z</time>
      </trkpt>
      <trkpt lat="45.95847" lon="3.6733">
        <ele>1131</ele>
        <time>2010-09-19T14:14:48Z</time>
      </trkpt>
      <trkpt lat="45.95817" lon="3.67405">
        <ele>1137</ele>
        <time>2010-09-19T14:14:48Z</time>
      </trkpt>
      <trkpt lat="45.95777" lon="3.675">
        <ele>1144</ele>
        <time>2010-09-19T14:14:48Z</time>
      </trkpt>
      <trkpt lat="45.9575" lon="3.67547">
        <ele>1148</ele>
        <time>2010-09-19T14:14:48Z</time>
      </trkpt>
      <trkpt lat="45.95706" lon="3.67604">
        <ele>1153</ele>
        <time>2010-09-19T14:14:48Z</time>
      </trkpt>
      <trkpt lat="45.95659" lon="3.67661">
        <ele>1157</ele>
        <time>2010-09-19T14:14:48Z</time>
      </trkpt>
      <trkpt lat="45.956" lon="3.677">
        <ele>1161</ele>
        <time>2010-09-19T14:14:48Z</time>
      </trkpt>
      <trkpt lat="45.9555" lon="3.67718">
        <ele>1164</ele>
        <time>2010-09-19T14:14:48Z</time>
      </trkpt>
      <trkpt lat="45.95497" lon="3.67744">
        <ele>1168</ele>
        <time>2010-09-19T14:14:48Z</time>
      </trkpt>
      <trkpt lat="45.9546" lon="3.67829">
        <ele>1169</ele>
        <time>2010-09-19T14:14:48Z</time>
      </trkpt>
      <trkpt lat="45.9536" lon="3.67878">
        <ele>1170</ele>
        <time>2010-09-19T14:14:48Z</time>
      </trkpt>
      <trkpt lat="45.95319" lon="3.67904">
        <ele>1170</ele>
        <time>2010-09-19T14:14:48Z</time>
      </trkpt>
      <trkpt lat="45.95261" lon="3.6795">
        <ele>1173</ele>
        <time>2010-09-19T14:14:48Z</time>
      </trkpt>
      <trkpt lat="45.95182" lon="3.68025">
        <ele>1173</ele>
        <time>2010-09-19T14:14:48Z</time>
      </trkpt>
      <trkpt lat="45.95106" lon="3.68089">
        <ele>1174</ele>
        <time>2010-09-19T14:14:48Z</time>
      </trkpt>
      <trkpt lat="45.95033" lon="3.68128">
        <ele>1172</ele>
        <time>2010-09-19T14:14:48Z</time>
      </trkpt>
      <trkpt lat="45.95054" lon="3.6804">
        <ele>1182</ele>
        <time>2010-09-19T14:14:48Z</time>
      </trkpt>
      <trkpt lat="45.95068" lon="3.67953">
        <ele>1193</ele>
        <time>2010-09-19T14:14:48Z</time>
      </trkpt>
      <trkpt lat="45.95078" lon="3.67852">
        <ele>1203</ele>
        <time>2010-09-19T14:14:48Z</time>
      </trkpt>
      <trkpt lat="45.95071" lon="3.67768">
        <ele>1208</ele>
        <time>2010-09-19T14:14:48Z</time>
      </trkpt>
      <trkpt lat="45.95041" lon="3.67696">
        <ele>1214</ele>
        <time>2010-09-19T14:14:48Z</time>
      </trkpt>
      <trkpt lat="45.9501" lon="3.67653">
        <ele>1218</ele>
        <time>2010-09-19T14:14:48Z</time>
      </trkpt>
      <trkpt lat="45.94967" lon="3.67617">
        <ele>1220</ele>
        <time>2010-09-19T14:14:48Z</time>
      </trkpt>
      <trkpt lat="45.94923" lon="3.67593">
        <ele>1221</ele>
        <time>2010-09-19T14:14:48Z</time>
      </trkpt>
      <trkpt lat="45.94776" lon="3.67588">
        <ele>1212</ele>
        <time>2010-09-19T14:14:48Z</time>
      </trkpt>
      <trkpt lat="45.94666" lon="3.67619">
        <ele>1191</ele>
        <time>2010-09-19T14:14:48Z</time>
      </trkpt>
      <trkpt lat="45.94615" lon="3.67603">
        <ele>1181</ele>
        <time>2010-09-19T14:14:48Z</time>
      </trkpt>
      <trkpt lat="45.94588" lon="3.67556">
        <ele>1177</ele>
        <time>2010-09-19T14:14:48Z</time>
      </trkpt>
      <trkpt lat="45.94567" lon="3.67504">
        <ele>1174</ele>
        <time>2010-09-19T14:14:48Z</time>
      </trkpt>
      <trkpt lat="45.94553" lon="3.67452">
        <ele>1173</ele>
        <time>2010-09-19T14:14:48Z</time>
      </trkpt>
      <trkpt lat="45.94552" lon="3.67404">
        <ele>1174</ele>
        <time>2010-09-19T14:14:48Z</time>
      </trkpt>
      <trkpt lat="45.9458" lon="3.67312">
        <ele>1172</ele>
        <time>2010-09-19T14:14:48Z</time>
      </trkpt>
      <trkpt lat="45.94615" lon="3.67229">
        <ele>1164</ele>
        <time>2010-09-19T14:14:48Z</time>
      </trkpt>
      <trkpt lat="45.94653" lon="3.67192">
        <ele>1159</ele>
        <time>2010-09-19T14:14:48Z</time>
      </trkpt>
      <trkpt lat="45.94698" lon="3.67167">
        <ele>1155</ele>
        <time>2010-09-19T14:14:48Z</time>
      </trkpt>
      <trkpt lat="45.94755" lon="3.67142">
        <ele>1149</ele>
        <time>2010-09-19T14:14:48Z</time>
      </trkpt>
      <trkpt lat="45.94828" lon="3.67146">
        <ele>1144</ele>
        <time>2010-09-19T14:14:48Z</time>
      </trkpt>
      <trkpt lat="45.94904" lon="3.67153">
        <ele>1137</ele>
        <time>2010-09-19T14:14:48Z</time>
      </trkpt>
      <trkpt lat="45.94923" lon="3.67145">
        <ele>1134</ele>
        <time>2010-09-19T14:14:48Z</time>
      </trkpt>
      <trkpt lat="45.94904" lon="3.67115">
        <ele>1130</ele>
        <time>2010-09-19T14:14:48Z</time>
      </trkpt>
      <trkpt lat="45.94859" lon="3.67064">
        <ele>1125</ele>
        <time>2010-09-19T14:14:48Z</time>
      </trkpt>
      <trkpt lat="45.948" lon="3.67007">
        <ele>1118</ele>
        <time>2010-09-19T14:14:48Z</time>
      </trkpt>
      <trkpt lat="45.9476" lon="3.66965">
        <ele>1111</ele>
        <time>2010-09-19T14:14:48Z</time>
      </trkpt>
      <trkpt lat="45.9464" lon="3.66878">
        <ele>1098</ele>
        <time>2010-09-19T14:14:48Z</time>
      </trkpt>
      <trkpt lat="45.94557" lon="3.66804">
        <ele>1085</ele>
        <time>2010-09-19T14:14:48Z</time>
      </trkpt>
      <trkpt lat="45.94456" lon="3.66742">
        <ele>1073</ele>
        <time>2010-09-19T14:14:48Z</time>
      </trkpt>
      <trkpt lat="45.94387" lon="3.66684">
        <ele>1062</ele>
        <time>2010-09-19T14:14:48Z</time>
      </trkpt>
      <trkpt lat="45.94319" lon="3.66653">
        <ele>1057</ele>
        <time>2010-09-19T14:14:48Z</time>
      </trkpt>
      <trkpt lat="45.94315" lon="3.66646">
        <ele>1055</ele>
        <time>2010-09-19T14:14:48Z</time>
      </trkpt>
      <trkpt lat="45.94315" lon="3.66632">
        <ele>1053</ele>
        <time>2010-09-19T14:14:48Z</time>
      </trkpt>
      <trkpt lat="45.94365" lon="3.66611">
        <ele>1051</ele>
        <time>2010-09-19T14:14:48Z</time>
      </trkpt>
      <trkpt lat="45.94446" lon="3.66596">
        <ele>1045</ele>
        <time>2010-09-19T14:14:48Z</time>
      </trkpt>
      <trkpt lat="45.94481" lon="3.66584">
        <ele>1041</ele>
        <time>2010-09-19T14:14:48Z</time>
      </trkpt>
      <trkpt lat="45.94497" lon="3.66567">
        <ele>1037</ele>
        <time>2010-09-19T14:14:48Z</time>
      </trkpt>
      <trkpt lat="45.94522" lon="3.66526">
        <ele>1030</ele>
        <time>2010-09-19T14:14:48Z</time>
      </trkpt>
      <trkpt lat="45.9454" lon="3.66481">
        <ele>1024</ele>
        <time>2010-09-19T14:14:48Z</time>
      </trkpt>
      <trkpt lat="45.94566" lon="3.6639">
        <ele>1016</ele>
        <time>2010-09-19T14:14:48Z</time>
      </trkpt>
      <trkpt lat="45.94593" lon="3.66258">
        <ele>1007</ele>
        <time>2010-09-19T14:14:48Z</time>
      </trkpt>
      <trkpt lat="45.94604" lon="3.66154">
        <ele>998</ele>
        <time>2010-09-19T14:14:48Z</time>
      </trkpt>
      <trkpt lat="45.94588" lon="3.661">
        <ele>990</ele>
        <time>2010-09-19T14:14:48Z</time>
      </trkpt>
      <trkpt lat="45.94558" lon="3.66043">
        <ele>986</ele>
        <time>2010-09-19T14:14:48Z</time>
      </trkpt>
      <trkpt lat="45.94523" lon="3.6599">
        <ele>982</ele>
        <time>2010-09-19T14:14:48Z</time>
      </trkpt>
      <trkpt lat="45.94502" lon="3.65953">
        <ele>979</ele>
        <time>2010-09-19T14:14:48Z</time>
      </trkpt>
      <trkpt lat="45.94491" lon="3.65909">
        <ele>978</ele>
        <time>2010-09-19T14:14:48Z</time>
      </trkpt>
      <trkpt lat="45.94458" lon="3.6585">
        <ele>972</ele>
        <time>2010-09-19T14:14:48Z</time>
      </trkpt>
      <trkpt lat="45.94397" lon="3.65773">
        <ele>966</ele>
        <time>2010-09-19T14:14:48Z</time>
      </trkpt>
      <trkpt lat="45.94366" lon="3.65727">
        <ele>964</ele>
        <time>2010-09-19T14:14:48Z</time>
      </trkpt>
      <trkpt lat="45.94338" lon="3.65672">
        <ele>961</ele>
        <time>2010-09-19T14:14:48Z</time>
      </trkpt>
      <trkpt lat="45.94306" lon="3.65621">
        <ele>954</ele>
        <time>2010-09-19T14:14:48Z</time>
      </trkpt>
      <trkpt lat="45.94275" lon="3.65593">
        <ele>949</ele>
        <time>2010-09-19T14:14:48Z</time>
      </trkpt>
      <trkpt lat="45.94255" lon="3.6556">
        <ele>948</ele>
        <time>2010-09-19T14:14:48Z</time>
      </trkpt>
      <trkpt lat="45.94206" lon="3.65554">
        <ele>945</ele>
        <time>2010-09-19T14:14:48Z</time>
      </trkpt>
      <trkpt lat="45.94165" lon="3.6554">
        <ele>942</ele>
        <time>2010-09-19T14:14:48Z</time>
      </trkpt>
      <trkpt lat="45.94087" lon="3.65461">
        <ele>932</ele>
        <time>2010-09-19T14:14:48Z</time>
      </trkpt>
      <trkpt lat="45.94057" lon="3.65421">
        <ele>928</ele>
        <time>2010-09-19T14:14:48Z</time>
      </trkpt>
      <trkpt lat="45.94034" lon="3.65393">
        <ele>925</ele>
        <time>2010-09-19T14:14:48Z</time>
      </trkpt>
      <trkpt lat="45.93989" lon="3.65349">
        <ele>920</ele>
        <time>2010-09-19T14:14:48Z</time>
      </trkpt>
      <trkpt lat="45.94009" lon="3.65485">
        <ele>917</ele>
        <time>2010-09-19T14:14:48Z</time>
      </trkpt>
      <trkpt lat="45.94033" lon="3.65547">
        <ele>918</ele>
        <time>2010-09-19T14:14:48Z</time>
      </trkpt>
      <trkpt lat="45.94092" lon="3.6564">
        <ele>918</ele>
        <time>2010-09-19T14:14:48Z</time>
      </trkpt>
      <trkpt lat="45.9409" lon="3.65679">
        <ele>917</ele>
        <time>2010-09-19T14:14:48Z</time>
      </trkpt>
      <trkpt lat="45.94069" lon="3.65725">
        <ele>916</ele>
        <time>2010-09-19T14:14:48Z</time>
      </trkpt>
      <trkpt lat="45.94047" lon="3.65795">
        <ele>921</ele>
        <time>2010-09-19T14:14:48Z</time>
      </trkpt>
      <trkpt lat="45.94019" lon="3.65919">
        <ele>922</ele>
        <time>2010-09-19T14:14:48Z</time>
      </trkpt>
      <trkpt lat="45.94012" lon="3.6601">
        <ele>929</ele>
        <time>2010-09-19T14:14:48Z</time>
      </trkpt>
      <trkpt lat="45.93979" lon="3.66069">
        <ele>926</ele>
        <time>2010-09-19T14:14:48Z</time>
      </trkpt>
      <trkpt lat="45.93967" lon="3.66075">
        <ele>925</ele>
        <time>2010-09-19T14:14:48Z</time>
      </trkpt>
      <trkpt lat="45.93947" lon="3.66052">
        <ele>925</ele>
        <time>2010-09-19T14:14:48Z</time>
      </trkpt>
      <trkpt lat="45.93922" lon="3.65997">
        <ele>922</ele>
        <time>2010-09-19T14:14:48Z</time>
      </trkpt>
      <trkpt lat="45.93829" lon="3.65977">
        <ele>932</ele>
        <time>2010-09-19T14:14:48Z</time>
      </trkpt>
      <trkpt lat="45.93807" lon="3.6598">
        <ele>933</ele>
        <time>2010-09-19T14:14:48Z</time>
      </trkpt>
      <trkpt lat="45.93781" lon="3.66003">
        <ele>935</ele>
        <time>2010-09-19T14:14:48Z</time>
      </trkpt>
      <trkpt lat="45.93771" lon="3.6603">
        <ele>936</ele>
        <time>2010-09-19T14:14:48Z</time>
      </trkpt>
      <trkpt lat="45.93778" lon="3.66097">
        <ele>943</ele>
        <time>2010-09-19T14:14:48Z</time>
      </trkpt>
      <trkpt lat="45.93779" lon="3.66166">
        <ele>949</ele>
        <time>2010-09-19T14:14:48Z</time>
      </trkpt>
      <trkpt lat="45.93785" lon="3.66227">
        <ele>954</ele>
        <time>2010-09-19T14:14:48Z</time>
      </trkpt>
      <trkpt lat="45.93789" lon="3.66313">
        <ele>959</ele>
        <time>2010-09-19T14:14:48Z</time>
      </trkpt>
      <trkpt lat="45.93816" lon="3.66491">
        <ele>966</ele>
        <time>2010-09-19T14:14:48Z</time>
      </trkpt>
      <trkpt lat="45.93821" lon="3.66638">
        <ele>978</ele>
        <time>2010-09-19T14:14:48Z</time>
      </trkpt>
      <trkpt lat="45.9381" lon="3.66713">
        <ele>987</ele>
        <time>2010-09-19T14:14:48Z</time>
      </trkpt>
      <trkpt lat="45.93788" lon="3.66798">
        <ele>1000</ele>
        <time>2010-09-19T14:14:48Z</time>
      </trkpt>
      <trkpt lat="45.93733" lon="3.66919">
        <ele>1022</ele>
        <time>2010-09-19T14:14:48Z</time>
      </trkpt>
      <trkpt lat="45.93703" lon="3.66977">
        <ele>1028</ele>
        <time>2010-09-19T14:14:48Z</time>
      </trkpt>
      <trkpt lat="45.9367" lon="3.67031">
        <ele>1030</ele>
        <time>2010-09-19T14:14:48Z</time>
      </trkpt>
      <trkpt lat="45.93601" lon="3.67035">
        <ele>1020</ele>
        <time>2010-09-19T14:14:48Z</time>
      </trkpt>
      <trkpt lat="45.93528" lon="3.6704">
        <ele>1011</ele>
        <time>2010-09-19T14:14:48Z</time>
      </trkpt>
      <trkpt lat="45.93488" lon="3.67023">
        <ele>1006</ele>
        <time>2010-09-19T14:14:48Z</time>
      </trkpt>
      <trkpt lat="45.93374" lon="3.66964">
        <ele>992</ele>
        <time>2010-09-19T14:14:48Z</time>
      </trkpt>
      <trkpt lat="45.93329" lon="3.66968">
        <ele>989</ele>
        <time>2010-09-19T14:14:48Z</time>
      </trkpt>
      <trkpt lat="45.9322" lon="3.66917">
        <ele>981</ele>
        <time>2010-09-19T14:14:48Z</time>
      </trkpt>
      <trkpt lat="45.93137" lon="3.66858">
        <ele>969</ele>
        <time>2010-09-19T14:14:48Z</time>
      </trkpt>
      <trkpt lat="45.93109" lon="3.66861">
        <ele>966</ele>
        <time>2010-09-19T14:14:48Z</time>
      </trkpt>
      <trkpt lat="45.9308" lon="3.6687">
        <ele>962</ele>
        <time>2010-09-19T14:14:48Z</time>
      </trkpt>
      <trkpt lat="45.93034" lon="3.66877">
        <ele>958</ele>
        <time>2010-09-19T14:14:48Z</time>
      </trkpt>
      <trkpt lat="45.92987" lon="3.6688">
        <ele>956</ele>
        <time>2010-09-19T14:14:48Z</time>
      </trkpt>
      <trkpt lat="45.92956" lon="3.66894">
        <ele>953</ele>
        <time>2010-09-19T14:14:48Z</time>
      </trkpt>
      <trkpt lat="45.92923" lon="3.6693">
        <ele>950</ele>
        <time>2010-09-19T14:14:48Z</time>
      </trkpt>
      <trkpt lat="45.92913" lon="3.66967">
        <ele>949</ele>
        <time>2010-09-19T14:14:48Z</time>
      </trkpt>
      <trkpt lat="45.92909" lon="3.67009">
        <ele>949</ele>
        <time>2010-09-19T14:14:48Z</time>
      </trkpt>
      <trkpt lat="45.92921" lon="3.67053">
        <ele>949</ele>
        <time>2010-09-19T14:14:48Z</time>
      </trkpt>
      <trkpt lat="45.92937" lon="3.67089">
        <ele>946</ele>
        <time>2010-09-19T14:14:48Z</time>
      </trkpt>
      <trkpt lat="45.92939" lon="3.67121">
        <ele>943</ele>
        <time>2010-09-19T14:14:48Z</time>
      </trkpt>
      <trkpt lat="45.92923" lon="3.67162">
        <ele>941</ele>
        <time>2010-09-19T14:14:48Z</time>
      </trkpt>
      <trkpt lat="45.92918" lon="3.67206">
        <ele>938</ele>
        <time>2010-09-19T14:14:48Z</time>
      </trkpt>
      <trkpt lat="45.92938" lon="3.67243">
        <ele>932</ele>
        <time>2010-09-19T14:14:48Z</time>
      </trkpt>
      <trkpt lat="45.92954" lon="3.67302">
        <ele>924</ele>
        <time>2010-09-19T14:14:48Z</time>
      </trkpt>
      <trkpt lat="45.92952" lon="3.67347">
        <ele>919</ele>
        <time>2010-09-19T14:14:48Z</time>
      </trkpt>
      <trkpt lat="45.92939" lon="3.67372">
        <ele>918</ele>
        <time>2010-09-19T14:14:48Z</time>
      </trkpt>
      <trkpt lat="45.92922" lon="3.67419">
        <ele>909</ele>
        <time>2010-09-19T14:14:48Z</time>
      </trkpt>
      <trkpt lat="45.92898" lon="3.67458">
        <ele>902</ele>
        <time>2010-09-19T14:14:48Z</time>
      </trkpt>
      <trkpt lat="45.9283" lon="3.67497">
        <ele>896</ele>
        <time>2010-09-19T14:14:48Z</time>
      </trkpt>
      <trkpt lat="45.92775" lon="3.67442">
        <ele>888</ele>
        <time>2010-09-19T14:14:48Z</time>
      </trkpt>
      <trkpt lat="45.92745" lon="3.67421">
        <ele>888</ele>
        <time>2010-09-19T14:14:48Z</time>
      </trkpt>
      <trkpt lat="45.92681" lon="3.67324">
        <ele>891</ele>
        <time>2010-09-19T14:14:48Z</time>
      </trkpt>
      <trkpt lat="45.92641" lon="3.67293">
        <ele>892</ele>
        <time>2010-09-19T14:14:48Z</time>
      </trkpt>
      <trkpt lat="45.92589" lon="3.67232">
        <ele>887</ele>
        <time>2010-09-19T14:14:48Z</time>
      </trkpt>
      <trkpt lat="45.92569" lon="3.67189">
        <ele>882</ele>
        <time>2010-09-19T14:14:48Z</time>
      </trkpt>
      <trkpt lat="45.92544" lon="3.6716">
        <ele>884</ele>
        <time>2010-09-19T14:14:48Z</time>
      </trkpt>
      <trkpt lat="45.92514" lon="3.67114">
        <ele>887</ele>
        <time>2010-09-19T14:14:48Z</time>
      </trkpt>
      <trkpt lat="45.9247" lon="3.67082">
        <ele>888</ele>
        <time>2010-09-19T14:14:48Z</time>
      </trkpt>
      <trkpt lat="45.92401" lon="3.67061">
        <ele>886</ele>
        <time>2010-09-19T14:14:48Z</time>
      </trkpt>
      <trkpt lat="45.92268" lon="3.67011">
        <ele>878</ele>
        <time>2010-09-19T14:14:48Z</time>
      </trkpt>
      <trkpt lat="45.9225" lon="3.67011">
        <ele>878</ele>
        <time>2010-09-19T14:14:48Z</time>
      </trkpt>
      <trkpt lat="45.92213" lon="3.67">
        <ele>878</ele>
        <time>2010-09-19T14:14:48Z</time>
      </trkpt>
      <trkpt lat="45.92184" lon="3.66996">
        <ele>876</ele>
        <time>2010-09-19T14:14:48Z</time>
      </trkpt>
      <trkpt lat="45.92175" lon="3.66977">
        <ele>874</ele>
        <time>2010-09-19T14:14:48Z</time>
      </trkpt>
      <trkpt lat="45.92171" lon="3.6693">
        <ele>871</ele>
        <time>2010-09-19T14:14:48Z</time>
      </trkpt>
      <trkpt lat="45.92182" lon="3.66899">
        <ele>869</ele>
        <time>2010-09-19T14:14:48Z</time>
      </trkpt>
      <trkpt lat="45.92229" lon="3.6682">
        <ele>862</ele>
        <time>2010-09-19T14:14:48Z</time>
      </trkpt>
      <trkpt lat="45.92248" lon="3.66775">
        <ele>862</ele>
        <time>2010-09-19T14:14:48Z</time>
      </trkpt>
      <trkpt lat="45.92259" lon="3.66734">
        <ele>862</ele>
        <time>2010-09-19T14:14:48Z</time>
      </trkpt>
      <trkpt lat="45.92266" lon="3.66669">
        <ele>862</ele>
        <time>2010-09-19T14:14:48Z</time>
      </trkpt>
      <trkpt lat="45.92267" lon="3.66637">
        <ele>861</ele>
        <time>2010-09-19T14:14:48Z</time>
      </trkpt>
      <trkpt lat="45.92278" lon="3.666">
        <ele>857</ele>
        <time>2010-09-19T14:14:48Z</time>
      </trkpt>
      <trkpt lat="45.92288" lon="3.66543">
        <ele>852</ele>
        <time>2010-09-19T14:14:48Z</time>
      </trkpt>
      <trkpt lat="45.92298" lon="3.66515">
        <ele>850</ele>
        <time>2010-09-19T14:14:48Z</time>
      </trkpt>
      <trkpt lat="45.9236" lon="3.66549">
        <ele>843</ele>
        <time>2010-09-19T14:14:48Z</time>
      </trkpt>
      <trkpt lat="45.92374" lon="3.66564">
        <ele>840</ele>
        <time>2010-09-19T14:14:48Z</time>
      </trkpt>
      <trkpt lat="45.92362" lon="3.66668">
        <ele>839</ele>
        <time>2010-09-19T14:14:48Z</time>
      </trkpt>
      <trkpt lat="45.92362" lon="3.66712">
        <ele>838</ele>
        <time>2010-09-19T14:14:48Z</time>
      </trkpt>
      <trkpt lat="45.92359" lon="3.66741">
        <ele>840</ele>
        <time>2010-09-19T14:14:48Z</time>
      </trkpt>
      <trkpt lat="45.92367" lon="3.66764">
        <ele>840</ele>
        <time>2010-09-19T14:14:48Z</time>
      </trkpt>
      <trkpt lat="45.92392" lon="3.66766">
        <ele>839</ele>
        <time>2010-09-19T14:14:48Z</time>
      </trkpt>
      <trkpt lat="45.92406" lon="3.66747">
        <ele>836</ele>
        <time>2010-09-19T14:14:48Z</time>
      </trkpt>
      <trkpt lat="45.92435" lon="3.66723">
        <ele>832</ele>
        <time>2010-09-19T14:14:48Z</time>
      </trkpt>
      <trkpt lat="45.92445" lon="3.66727">
        <ele>833</ele>
        <time>2010-09-19T14:14:48Z</time>
      </trkpt>
      <trkpt lat="45.9247" lon="3.66763">
        <ele>835</ele>
        <time>2010-09-19T14:14:48Z</time>
      </trkpt>
      <trkpt lat="45.92483" lon="3.66763">
        <ele>835</ele>
        <time>2010-09-19T14:14:48Z</time>
      </trkpt>
      <trkpt lat="45.9249" lon="3.66736">
        <ele>833</ele>
        <time>2010-09-19T14:14:48Z</time>
      </trkpt>
      <trkpt lat="45.92498" lon="3.66665">
        <ele>832</ele>
        <time>2010-09-19T14:14:48Z</time>
      </trkpt>
      <trkpt lat="45.92511" lon="3.66608">
        <ele>833</ele>
        <time>2010-09-19T14:14:48Z</time>
      </trkpt>
      <trkpt lat="45.92528" lon="3.66505">
        <ele>831</ele>
        <time>2010-09-19T14:14:48Z</time>
      </trkpt>
      <trkpt lat="45.92546" lon="3.66457">
        <ele>830</ele>
        <time>2010-09-19T14:14:48Z</time>
      </trkpt>
      <trkpt lat="45.92562" lon="3.66433">
        <ele>831</ele>
        <time>2010-09-19T14:14:48Z</time>
      </trkpt>
      <trkpt lat="45.92593" lon="3.66397">
        <ele>831</ele>
        <time>2010-09-19T14:14:48Z</time>
      </trkpt>
      <trkpt lat="45.92593" lon="3.66365">
        <ele>828</ele>
        <time>2010-09-19T14:14:48Z</time>
      </trkpt>
      <trkpt lat="45.92599" lon="3.6632">
        <ele>824</ele>
        <time>2010-09-19T14:14:48Z</time>
      </trkpt>
      <trkpt lat="45.9263" lon="3.66135">
        <ele>825</ele>
        <time>2010-09-19T14:14:48Z</time>
      </trkpt>
      <trkpt lat="45.92642" lon="3.66021">
        <ele>814</ele>
        <time>2010-09-19T14:14:48Z</time>
      </trkpt>
      <trkpt lat="45.92627" lon="3.65993">
        <ele>810</ele>
        <time>2010-09-19T14:14:48Z</time>
      </trkpt>
      <trkpt lat="45.92604" lon="3.65976">
        <ele>804</ele>
        <time>2010-09-19T14:14:48Z</time>
      </trkpt>
      <trkpt lat="45.92585" lon="3.65966">
        <ele>799</ele>
        <time>2010-09-19T14:14:48Z</time>
      </trkpt>
      <trkpt lat="45.92543" lon="3.65969">
        <ele>795</ele>
        <time>2010-09-19T14:14:48Z</time>
      </trkpt>
      <trkpt lat="45.92482" lon="3.66051">
        <ele>796</ele>
        <time>2010-09-19T14:14:48Z</time>
      </trkpt>
      <trkpt lat="45.92467" lon="3.65981">
        <ele>800</ele>
        <time>2010-09-19T14:14:48Z</time>
      </trkpt>
      <trkpt lat="45.92498" lon="3.65898">
        <ele>797</ele>
        <time>2010-09-19T14:14:48Z</time>
      </trkpt>
      <trkpt lat="45.92546" lon="3.65806">
        <ele>798</ele>
        <time>2010-09-19T14:14:48Z</time>
      </trkpt>
      <trkpt lat="45.92558" lon="3.65759">
        <ele>804</ele>
        <time>2010-09-19T14:14:48Z</time>
      </trkpt>
      <trkpt lat="45.92562" lon="3.657">
        <ele>806</ele>
        <time>2010-09-19T14:14:48Z</time>
      </trkpt>
      <trkpt lat="45.9256" lon="3.65668">
        <ele>805</ele>
        <time>2010-09-19T14:14:48Z</time>
      </trkpt>
      <trkpt lat="45.92546" lon="3.65619">
        <ele>802</ele>
        <time>2010-09-19T14:14:48Z</time>
      </trkpt>
      <trkpt lat="45.92543" lon="3.65585">
        <ele>798</ele>
        <time>2010-09-19T14:14:48Z</time>
      </trkpt>
      <trkpt lat="45.92535" lon="3.65544">
        <ele>795</ele>
        <time>2010-09-19T14:14:48Z</time>
      </trkpt>
      <trkpt lat="45.92505" lon="3.65458">
        <ele>790</ele>
        <time>2010-09-19T14:14:48Z</time>
      </trkpt>
      <trkpt lat="45.92458" lon="3.65407">
        <ele>789</ele>
        <time>2010-09-19T14:14:48Z</time>
      </trkpt>
      <trkpt lat="45.92401" lon="3.65367">
        <ele>782</ele>
        <time>2010-09-19T14:14:48Z</time>
      </trkpt>
      <trkpt lat="45.92382" lon="3.65351">
        <ele>780</ele>
        <time>2010-09-19T14:14:48Z</time>
      </trkpt>
      <trkpt lat="45.92353" lon="3.65314">
        <ele>780</ele>
        <time>2010-09-19T14:14:48Z</time>
      </trkpt>
      <trkpt lat="45.92325" lon="3.65293">
        <ele>783</ele>
        <time>2010-09-19T14:14:48Z</time>
      </trkpt>
      <trkpt lat="45.92297" lon="3.65287">
        <ele>785</ele>
        <time>2010-09-19T14:14:48Z</time>
      </trkpt>
      <trkpt lat="45.92241" lon="3.65291">
        <ele>784</ele>
        <time>2010-09-19T14:14:48Z</time>
      </trkpt>
      <trkpt lat="45.92195" lon="3.65315">
        <ele>784</ele>
        <time>2010-09-19T14:14:48Z</time>
      </trkpt>
      <trkpt lat="45.92154" lon="3.65355">
        <ele>786</ele>
        <time>2010-09-19T14:14:48Z</time>
      </trkpt>
      <trkpt lat="45.92044" lon="3.65436">
        <ele>792</ele>
        <time>2010-09-19T14:14:48Z</time>
      </trkpt>
      <trkpt lat="45.92017" lon="3.65451">
        <ele>793</ele>
        <time>2010-09-19T14:14:48Z</time>
      </trkpt>
      <trkpt lat="45.91988" lon="3.65456">
        <ele>793</ele>
        <time>2010-09-19T14:14:48Z</time>
      </trkpt>
      <trkpt lat="45.91937" lon="3.65449">
        <ele>798</ele>
        <time>2010-09-19T14:14:48Z</time>
      </trkpt>
      <trkpt lat="45.91914" lon="3.65431">
        <ele>802</ele>
        <time>2010-09-19T14:14:48Z</time>
      </trkpt>
      <trkpt lat="45.9188" lon="3.65377">
        <ele>807</ele>
        <time>2010-09-19T14:14:48Z</time>
      </trkpt>
      <trkpt lat="45.91866" lon="3.65367">
        <ele>809</ele>
        <time>2010-09-19T14:14:48Z</time>
      </trkpt>
      <trkpt lat="45.91817" lon="3.65435">
        <ele>810</ele>
        <time>2010-09-19T14:14:48Z</time>
      </trkpt>
      <trkpt lat="45.91797" lon="3.6549">
        <ele>810</ele>
        <time>2010-09-19T14:14:48Z</time>
      </trkpt>
      <trkpt lat="45.9177" lon="3.65631">
        <ele>823</ele>
        <time>2010-09-19T14:14:48Z</time>
      </trkpt>
      <trkpt lat="45.91749" lon="3.65661">
        <ele>824</ele>
        <time>2010-09-19T14:14:48Z</time>
      </trkpt>
      <trkpt lat="45.91704" lon="3.65681">
        <ele>823</ele>
        <time>2010-09-19T14:14:48Z</time>
      </trkpt>
      <trkpt lat="45.91656" lon="3.65686">
        <ele>823</ele>
        <time>2010-09-19T14:14:48Z</time>
      </trkpt>
      <trkpt lat="45.91636" lon="3.65623">
        <ele>818</ele>
        <time>2010-09-19T14:14:48Z</time>
      </trkpt>
      <trkpt lat="45.91613" lon="3.65566">
        <ele>818</ele>
        <time>2010-09-19T14:14:48Z</time>
      </trkpt>
      <trkpt lat="45.91587" lon="3.65526">
        <ele>817</ele>
        <time>2010-09-19T14:14:48Z</time>
      </trkpt>
      <trkpt lat="45.91549" lon="3.65493">
        <ele>815</ele>
        <time>2010-09-19T14:14:48Z</time>
      </trkpt>
      <trkpt lat="45.91493" lon="3.65436">
        <ele>813</ele>
        <time>2010-09-19T14:14:48Z</time>
      </trkpt>
      <trkpt lat="45.9146" lon="3.65414">
        <ele>817</ele>
        <time>2010-09-19T14:14:48Z</time>
      </trkpt>
      <trkpt lat="45.91414" lon="3.65295">
        <ele>819</ele>
        <time>2010-09-19T14:14:48Z</time>
      </trkpt>
      <trkpt lat="45.91406" lon="3.65234">
        <ele>820</ele>
        <time>2010-09-19T14:14:48Z</time>
      </trkpt>
      <trkpt lat="45.91393" lon="3.65203">
        <ele>820</ele>
        <time>2010-09-19T14:14:48Z</time>
      </trkpt>
      <trkpt lat="45.914" lon="3.65151">
        <ele>822</ele>
        <time>2010-09-19T14:14:48Z</time>
      </trkpt>
      <trkpt lat="45.91413" lon="3.65105">
        <ele>825</ele>
        <time>2010-09-19T14:14:48Z</time>
      </trkpt>
      <trkpt lat="45.91419" lon="3.65063">
        <ele>826</ele>
        <time>2010-09-19T14:14:48Z</time>
      </trkpt>
      <trkpt lat="45.91427" lon="3.65031">
        <ele>828</ele>
        <time>2010-09-19T14:14:48Z</time>
      </trkpt>
      <trkpt lat="45.91426" lon="3.65002">
        <ele>829</ele>
        <time>2010-09-19T14:14:48Z</time>
      </trkpt>
      <trkpt lat="45.91431" lon="3.6497">
        <ele>832</ele>
        <time>2010-09-19T14:14:48Z</time>
      </trkpt>
      <trkpt lat="45.91481" lon="3.65028">
        <ele>831</ele>
        <time>2010-09-19T14:14:48Z</time>
      </trkpt>
      <trkpt lat="45.91512" lon="3.65069">
        <ele>828</ele>
        <time>2010-09-19T14:14:48Z</time>
      </trkpt>
      <trkpt lat="45.91546" lon="3.65089">
        <ele>824</ele>
        <time>2010-09-19T14:14:48Z</time>
      </trkpt>
      <trkpt lat="45.9158" lon="3.65077">
        <ele>821</ele>
        <time>2010-09-19T14:14:48Z</time>
      </trkpt>
      <trkpt lat="45.91605" lon="3.65063">
        <ele>819</ele>
        <time>2010-09-19T14:14:48Z</time>
      </trkpt>
      <trkpt lat="45.91621" lon="3.65039">
        <ele>818</ele>
        <time>2010-09-19T14:14:48Z</time>
      </trkpt>
      <trkpt lat="45.91633" lon="3.65005">
        <ele>820</ele>
        <time>2010-09-19T14:14:48Z</time>
      </trkpt>
      <trkpt lat="45.91631" lon="3.6497">
        <ele>822</ele>
        <time>2010-09-19T14:14:48Z</time>
      </trkpt>
      <trkpt lat="45.91653" lon="3.64875">
        <ele>816</ele>
        <time>2010-09-19T14:14:48Z</time>
      </trkpt>
      <trkpt lat="45.91682" lon="3.64786">
        <ele>817</ele>
        <time>2010-09-19T14:14:48Z</time>
      </trkpt>
      <trkpt lat="45.91691" lon="3.64749">
        <ele>819</ele>
        <time>2010-09-19T14:14:48Z</time>
      </trkpt>
      <trkpt lat="45.917" lon="3.64696">
        <ele>819</ele>
        <time>2010-09-19T14:14:48Z</time>
      </trkpt>
      <trkpt lat="45.91707" lon="3.64672">
        <ele>818</ele>
        <time>2010-09-19T14:14:48Z</time>
      </trkpt>
      <trkpt lat="45.9171" lon="3.64617">
        <ele>816</ele>
        <time>2010-09-19T14:14:48Z</time>
      </trkpt>
      <trkpt lat="45.91695" lon="3.64546">
        <ele>816</ele>
        <time>2010-09-19T14:14:48Z</time>
      </trkpt>
      <trkpt lat="45.91683" lon="3.6451">
        <ele>813</ele>
        <time>2010-09-19T14:14:48Z</time>
      </trkpt>
      <trkpt lat="45.91705" lon="3.64475">
        <ele>811</ele>
        <time>2010-09-19T14:14:48Z</time>
      </trkpt>
      <trkpt lat="45.91721" lon="3.64432">
        <ele>806</ele>
        <time>2010-09-19T14:14:48Z</time>
      </trkpt>
      <trkpt lat="45.91737" lon="3.6437">
        <ele>799</ele>
        <time>2010-09-19T14:14:48Z</time>
      </trkpt>
      <trkpt lat="45.91745" lon="3.64323">
        <ele>792</ele>
        <time>2010-09-19T14:14:48Z</time>
      </trkpt>
      <trkpt lat="45.91759" lon="3.64262">
        <ele>783</ele>
        <time>2010-09-19T14:14:48Z</time>
      </trkpt>
      <trkpt lat="45.91763" lon="3.64195">
        <ele>775</ele>
        <time>2010-09-19T14:14:48Z</time>
      </trkpt>
      <trkpt lat="45.91754" lon="3.64103">
        <ele>765</ele>
        <time>2010-09-19T14:14:48Z</time>
      </trkpt>
      <trkpt lat="45.91815" lon="3.6408">
        <ele>765</ele>
        <time>2010-09-19T14:14:48Z</time>
      </trkpt>
      <trkpt lat="45.91872" lon="3.64075">
        <ele>765</ele>
        <time>2010-09-19T14:14:48Z</time>
      </trkpt>
      <trkpt lat="45.91887" lon="3.64087">
        <ele>764</ele>
        <time>2010-09-19T14:14:48Z</time>
      </trkpt>
      <trkpt lat="45.919" lon="3.64114">
        <ele>761</ele>
        <time>2010-09-19T14:14:48Z</time>
      </trkpt>
      <trkpt lat="45.91923" lon="3.64178">
        <ele>757</ele>
        <time>2010-09-19T14:14:48Z</time>
      </trkpt>
      <trkpt lat="45.91941" lon="3.64188">
        <ele>755</ele>
        <time>2010-09-19T14:14:48Z</time>
      </trkpt>
      <trkpt lat="45.9197" lon="3.64196">
        <ele>749</ele>
        <time>2010-09-19T14:14:48Z</time>
      </trkpt>
      <trkpt lat="45.91989" lon="3.64147">
        <ele>747</ele>
        <time>2010-09-19T14:14:48Z</time>
      </trkpt>
      <trkpt lat="45.92008" lon="3.6413">
        <ele>745</ele>
        <time>2010-09-19T14:14:48Z</time>
      </trkpt>
      <trkpt lat="45.92048" lon="3.64103">
        <ele>742</ele>
        <time>2010-09-19T14:14:48Z</time>
      </trkpt>
      <trkpt lat="45.92078" lon="3.64094">
        <ele>739</ele>
        <time>2010-09-19T14:14:48Z</time>
      </trkpt>
      <trkpt lat="45.92132" lon="3.64062">
        <ele>732</ele>
        <time>2010-09-19T14:14:48Z</time>
      </trkpt>
      <trkpt lat="45.92156" lon="3.64059">
        <ele>727</ele>
        <time>2010-09-19T14:14:48Z</time>
      </trkpt>
      <trkpt lat="45.92168" lon="3.64066">
        <ele>725</ele>
        <time>2010-09-19T14:14:48Z</time>
      </trkpt>
      <trkpt lat="45.92177" lon="3.64082">
        <ele>723</ele>
        <time>2010-09-19T14:14:48Z</time>
      </trkpt>
      <trkpt lat="45.92175" lon="3.64098">
        <ele>723</ele>
        <time>2010-09-19T14:14:48Z</time>
      </trkpt>
      <trkpt lat="45.92163" lon="3.64114">
        <ele>724</ele>
        <time>2010-09-19T14:14:48Z</time>
      </trkpt>
      <trkpt lat="45.9213" lon="3.64136">
        <ele>727</ele>
        <time>2010-09-19T14:14:48Z</time>
      </trkpt>
      <trkpt lat="45.92117" lon="3.64153">
        <ele>727</ele>
        <time>2010-09-19T14:14:48Z</time>
      </trkpt>
      <trkpt lat="45.92116" lon="3.64173">
        <ele>725</ele>
        <time>2010-09-19T14:14:48Z</time>
      </trkpt>
      <trkpt lat="45.92122" lon="3.64187">
        <ele>724</ele>
        <time>2010-09-19T14:14:48Z</time>
      </trkpt>
      <trkpt lat="45.92169" lon="3.64227">
        <ele>720</ele>
        <time>2010-09-19T14:14:48Z</time>
      </trkpt>
      <trkpt lat="45.92243" lon="3.64259">
        <ele>721</ele>
        <time>2010-09-19T14:14:48Z</time>
      </trkpt>
      <trkpt lat="45.92277" lon="3.6428">
        <ele>724</ele>
        <time>2010-09-19T14:14:48Z</time>
      </trkpt>
      <trkpt lat="45.92331" lon="3.64308">
        <ele>726</ele>
        <time>2010-09-19T14:14:48Z</time>
      </trkpt>
      <trkpt lat="45.92351" lon="3.6433">
        <ele>728</ele>
        <time>2010-09-19T14:14:48Z</time>
      </trkpt>
      <trkpt lat="45.92414" lon="3.64355">
        <ele>730</ele>
        <time>2010-09-19T14:14:48Z</time>
      </trkpt>
      <trkpt lat="45.92477" lon="3.64349">
        <ele>739</ele>
        <time>2010-09-19T14:14:48Z</time>
      </trkpt>
      <trkpt lat="45.92528" lon="3.64316">
        <ele>739</ele>
        <time>2010-09-19T14:14:48Z</time>
      </trkpt>
      <trkpt lat="45.92573" lon="3.64317">
        <ele>740</ele>
        <time>2010-09-19T14:14:48Z</time>
      </trkpt>
      <trkpt lat="45.92603" lon="3.64324">
        <ele>740</ele>
        <time>2010-09-19T14:14:48Z</time>
      </trkpt>
      <trkpt lat="45.92656" lon="3.64329">
        <ele>742</ele>
        <time>2010-09-19T14:14:48Z</time>
      </trkpt>
      <trkpt lat="45.92738" lon="3.64331">
        <ele>749</ele>
        <time>2010-09-19T14:14:48Z</time>
      </trkpt>
      <trkpt lat="45.92845" lon="3.64358">
        <ele>761</ele>
        <time>2010-09-19T14:14:48Z</time>
      </trkpt>
      <trkpt lat="45.92885" lon="3.64381">
        <ele>762</ele>
        <time>2010-09-19T14:14:48Z</time>
      </trkpt>
      <trkpt lat="45.9291" lon="3.64377">
        <ele>765</ele>
        <time>2010-09-19T14:14:48Z</time>
      </trkpt>
      <trkpt lat="45.92972" lon="3.64378">
        <ele>774</ele>
        <time>2010-09-19T14:14:48Z</time>
      </trkpt>
      <trkpt lat="45.93023" lon="3.64386">
        <ele>778</ele>
        <time>2010-09-19T14:14:48Z</time>
      </trkpt>
      <trkpt lat="45.93062" lon="3.64387">
        <ele>781</ele>
        <time>2010-09-19T14:14:48Z</time>
      </trkpt>
      <trkpt lat="45.93095" lon="3.64397">
        <ele>783</ele>
        <time>2010-09-19T14:14:48Z</time>
      </trkpt>
      <trkpt lat="45.93133" lon="3.64393">
        <ele>787</ele>
        <time>2010-09-19T14:14:48Z</time>
      </trkpt>
      <trkpt lat="45.93118" lon="3.64353">
        <ele>786</ele>
        <time>2010-09-19T14:14:48Z</time>
      </trkpt>
      <trkpt lat="45.93099" lon="3.64328">
        <ele>786</ele>
        <time>2010-09-19T14:14:48Z</time>
      </trkpt>
      <trkpt lat="45.93107" lon="3.6424">
        <ele>791</ele>
        <time>2010-09-19T14:14:48Z</time>
      </trkpt>
      <trkpt lat="45.93099" lon="3.64199">
        <ele>791</ele>
        <time>2010-09-19T14:14:48Z</time>
      </trkpt>
      <trkpt lat="45.93095" lon="3.64144">
        <ele>795</ele>
        <time>2010-09-19T14:14:48Z</time>
      </trkpt>
      <trkpt lat="45.93083" lon="3.64118">
        <ele>796</ele>
        <time>2010-09-19T14:14:48Z</time>
      </trkpt>
      <trkpt lat="45.93074" lon="3.6406">
        <ele>800</ele>
        <time>2010-09-19T14:14:48Z</time>
      </trkpt>
      <trkpt lat="45.93093" lon="3.63973">
        <ele>807</ele>
        <time>2010-09-19T14:14:48Z</time>
      </trkpt>
      <trkpt lat="45.931" lon="3.63867">
        <ele>810</ele>
        <time>2010-09-19T14:14:48Z</time>
      </trkpt>
      <trkpt lat="45.93085" lon="3.63749">
        <ele>818</ele>
        <time>2010-09-19T14:14:48Z</time>
      </trkpt>
      <trkpt lat="45.93088" lon="3.6372">
        <ele>820</ele>
        <time>2010-09-19T14:14:48Z</time>
      </trkpt>
      <trkpt lat="45.93102" lon="3.63687">
        <ele>824</ele>
        <time>2010-09-19T14:14:48Z</time>
      </trkpt>
      <trkpt lat="45.93119" lon="3.63629">
        <ele>824</ele>
        <time>2010-09-19T14:14:48Z</time>
      </trkpt>
      <trkpt lat="45.93142" lon="3.63586">
        <ele>822</ele>
        <time>2010-09-19T14:14:48Z</time>
      </trkpt>
      <trkpt lat="45.9316" lon="3.63557">
        <ele>819</ele>
        <time>2010-09-19T14:14:48Z</time>
      </trkpt>
      <trkpt lat="45.93252" lon="3.63492">
        <ele>811</ele>
        <time>2010-09-19T14:14:48Z</time>
      </trkpt>
      <trkpt lat="45.93322" lon="3.63453">
        <ele>807</ele>
        <time>2010-09-19T14:14:48Z</time>
      </trkpt>
      <trkpt lat="45.93379" lon="3.63414">
        <ele>801</ele>
        <time>2010-09-19T14:14:48Z</time>
      </trkpt>
      <trkpt lat="45.93451" lon="3.63377">
        <ele>795</ele>
        <time>2010-09-19T14:14:48Z</time>
      </trkpt>
      <trkpt lat="45.93497" lon="3.6338">
        <ele>790</ele>
        <time>2010-09-19T14:14:48Z</time>
      </trkpt>
      <trkpt lat="45.93518" lon="3.63398">
        <ele>790</ele>
        <time>2010-09-19T14:14:48Z</time>
      </trkpt>
      <trkpt lat="45.93549" lon="3.63415">
        <ele>787</ele>
        <time>2010-09-19T14:14:48Z</time>
      </trkpt>
      <trkpt lat="45.93581" lon="3.63422">
        <ele>791</ele>
        <time>2010-09-19T14:14:48Z</time>
      </trkpt>
      <trkpt lat="45.93599" lon="3.63402">
        <ele>791</ele>
        <time>2010-09-19T14:14:48Z</time>
      </trkpt>
      <trkpt lat="45.93617" lon="3.63365">
        <ele>792</ele>
        <time>2010-09-19T14:14:48Z</time>
      </trkpt>
      <trkpt lat="45.93624" lon="3.63333">
        <ele>791</ele>
        <time>2010-09-19T14:14:48Z</time>
      </trkpt>
      <trkpt lat="45.9364" lon="3.63314">
        <ele>791</ele>
        <time>2010-09-19T14:14:48Z</time>
      </trkpt>
      <trkpt lat="45.93665" lon="3.63315">
        <ele>794</ele>
        <time>2010-09-19T14:14:48Z</time>
      </trkpt>
      <trkpt lat="45.93705" lon="3.63304">
        <ele>796</ele>
        <time>2010-09-19T14:14:48Z</time>
      </trkpt>
      <trkpt lat="45.93735" lon="3.63281">
        <ele>796</ele>
        <time>2010-09-19T14:14:48Z</time>
      </trkpt>
      <trkpt lat="45.93771" lon="3.63267">
        <ele>797</ele>
        <time>2010-09-19T14:14:48Z</time>
      </trkpt>
      <trkpt lat="45.93859" lon="3.6319">
        <ele>790</ele>
        <time>2010-09-19T14:14:48Z</time>
      </trkpt>
      <trkpt lat="45.93888" lon="3.63168">
        <ele>787</ele>
        <time>2010-09-19T14:14:48Z</time>
      </trkpt>
    </trkseg>
  </trk>
</gpx>